Pagina principale
METAR-TAF:

METAR-TAF

Aeroporti :

Okeechobee, Florida, Stati Uniti

latitudine: 27-15-58N, longitudine: 080-51-04W, altezza: 10 m

Osservazione

Il bollettino è stato emesso 23 minuti fa, alle 18:55 UTC
Vento 8 kt da sud/sud-est
Temperature 25°C
Umidità 47%
Pressione 1017 hPa
Visibilità: 16.1 km

METAR: KOBE 241855Z AUTO 16008KT 10SM 25/13 A3002 RMK AO2

Ora: 14:18 (19:18 UTC)


TAF: mancante

Osservazioni e previsioni meteorologiche di più di 4000 aeroporti (messaggi METAR e TAF).

Le stazioni disponibili sono rappresentate dai dischi gialli e rossi sulla carta.

Puntare il mouse per vedere il nome della stazione.

Clicca sopra per visualizzare le osservazioni e previsioni meteorologiche.

Per cambiare la mappa : fare clic sui pulsanti verdi con una croce nera per ingrandire, il pulsante verde con un trattino per diminuire, o sulla freccia verde per le mappe adiacenti.


METAR-TAF: